Location: Gebenbach
(49.5378°N, 11.8735°E)
Time: 02:49:46
(UTC+00:00)

Cosmos 1892 - Pass Details

Date: 29 October 2020
Orbit: 504 x 523 km, 82.5° (Epoch: 24 November)

Event Time Altitude Azimuth Distance (km) Brightness Sun altitude
Rises 16:53:21 0° 355° (N) 2,667 6.3 -10.0°
Reaches altitude 10° 16:55:34 10° 1° (N) 1,775 5.3 -10.3°
Maximum altitude 16:59:20 45° 75° (ENE) 720 3.0 -10.9°
Drops below altitude 10° 17:03:04 10° 150° (SSE) 1,761 5.2 -11.5°
Sets 17:05:15 0° 157° (SSE) 2,644 6.1 -11.9°
